Location: Clarion
(42.7316°N, 93.7330°W)
Time: 09:55:50
(UTC+00:00)

Cosmos 1503 Rocket - Pass Details

Date: 22 April 2026
Orbit: 748 x 786 km, 74.0° (Epoch: 17 May)

Event Time Altitude Azimuth Distance (km) Brightness Sun altitude
Rises 09:10:08 0° 333° (NNW) 3,251 7.5 -21.8°
Reaches altitude 10° 09:12:37 10° 327° (NNW) 2,314 6.6 -21.4°
Maximum altitude 09:17:33 43° 257° (WSW) 1,070 4.3 -20.8°
Enters shadow 09:17:42 42° 253° (WSW) 1,072 4.3 -20.7°
